Powrót do katalogu

STARLINK-32008

AktywnyŁącznośćVLEO
NORAD 60028·PAYLOAD·🇺🇸 United States

Wystrzelony Jun 8, 2024 z Cape Canaveral Space Force Station

Loading…

Następne Przeloty (najbliższe 24 godziny)

TLE

ŚwieżeSource: CelesTrak SupGP

Epoka: Sep 15, 2026, 03:05 UTC

1 60028C 24111N   26258.12895833 -.00011427  00000+0 -33767-3 0  2580
2 60028  53.1581 274.9228 0001255  93.1529  78.0353 15.34390462    11

Śledź STARLINK-32008 w czasie rzeczywistym z AllMySat

Download on the App Store